Location: Laas
(43.4693°N, 0.3073°E)
Time: 15:39:29
(UTC+00:00)

USA 305 - Pass Details

Date: 25 October 2020
Orbit: 569 x 577 km, 54.0° (Epoch: 22 November)

Event Time Altitude Azimuth Distance (km) Brightness Sun altitude
Rises 19:20:12 0° 308° (NW) 2,785 7.3 -26.1°
Reaches altitude 10° 19:22:33 10° 315° (NW) 1,883 6.2 -26.6°
Enters shadow 19:25:07 31° 339° (NNW) 1,027 4.4 -27.0°
